WMT855 LROP-EGGW

Flight info

Callsign WMT855
Flight time N/A
Altitude 34000
Route SOKRU DCT IBINU DCT NORAH DCT PEPIK DCT LIKSA DCT VOZ DCT ELMEK/N0439F360 DCT NAVEK DCT VEXIL DCT KATCE DCT WRB DCT NOGRO M40 RINIS
Aircraft A21N/M-SDE2E3FGHIRWXY/LB1

Departure

Time 2026-05-05 18:15
Airport Bucharest Henri Coandă International Airport (LROP)

Arrival

Time N/A
Airport London Luton Airport (EGGW)
Time Latitude Longitude Altitude Speed Heading
2026-05-05 17:36 44.57008 26.07961 320 ft 0 kts 353°
2026-05-05 17:57 44.56992 26.07964 318 ft 3 kts 353°
2026-05-05 17:58 44.56974 26.07967 318 ft 3 kts 353°
2026-05-05 17:58 44.56956 26.07969 317 ft 2 kts 359°
2026-05-05 17:58 44.56940 26.07969 319 ft 2 kts 24°
2026-05-05 17:58 44.56928 26.07953 317 ft 0 kts 81°
2026-05-05 18:02 44.56928 26.07954 320 ft 0 kts 81°
2026-05-05 18:03 44.56929 26.07973 320 ft 3 kts 85°
2026-05-05 18:03 44.56931 26.08003 320 ft 3 kts 85°
2026-05-05 18:03 44.56932 26.08030 320 ft 3 kts 85°
2026-05-05 18:03 44.56934 26.08054 320 ft 2 kts 84°
2026-05-05 18:04 44.56935 26.08080 318 ft 5 kts 84°
2026-05-05 18:04 44.56940 26.08146 320 ft 9 kts 84°
2026-05-05 18:04 44.56947 26.08251 319 ft 13 kts 84°
2026-05-05 18:04 44.56972 26.08378 318 ft 12 kts 39°
2026-05-05 18:05 44.57029 26.08386 319 ft 8 kts 354°
2026-05-05 18:05 44.57085 26.08378 318 ft 8 kts 354°
2026-05-05 18:05 44.57143 26.08371 319 ft 8 kts 354°
2026-05-05 18:05 44.57192 26.08364 319 ft 7 kts 354°
2026-05-05 18:06 44.57220 26.08379 320 ft 3 kts 43°
2026-05-05 18:06 44.57226 26.08396 318 ft 2 kts 69°
2026-05-05 18:06 44.57234 26.08458 321 ft 8 kts 84°
2026-05-05 18:06 44.57260 26.08494 322 ft 6 kts 10°
2026-05-05 18:07 44.57313 26.08490 322 ft 10 kts 352°
2026-05-05 18:07 44.57394 26.08477 324 ft 14 kts 354°
2026-05-05 18:07 44.57477 26.08479 322 ft 7 kts 30°
2026-05-05 18:07 44.57497 26.08550 323 ft 10 kts 84°
2026-05-05 18:08 44.57508 26.08671 324 ft 15 kts 83°
2026-05-05 18:08 44.57522 26.08834 324 ft 20 kts 83°
2026-05-05 18:08 44.57543 26.09053 321 ft 25 kts 82°
2026-05-05 18:08 44.57559 26.09309 320 ft 27 kts 86°
2026-05-05 18:09 44.57579 26.09586 321 ft 30 kts 84°
2026-05-05 18:09 44.57601 26.09883 323 ft 31 kts 84°
2026-05-05 18:09 44.57623 26.10189 322 ft 33 kts 84°
2026-05-05 18:09 44.57648 26.10515 322 ft 32 kts 84°
2026-05-05 18:10 44.57672 26.10837 316 ft 34 kts 84°
2026-05-05 18:10 44.57695 26.11157 315 ft 33 kts 83°
2026-05-05 18:10 44.57719 26.11464 318 ft 30 kts 84°
2026-05-05 18:10 44.57735 26.11675 320 ft 10 kts 84°
2026-05-05 18:11 44.57741 26.11759 321 ft 8 kts 85°
2026-05-05 18:11 44.57746 26.11831 322 ft 7 kts 85°
2026-05-05 18:11 44.57752 26.11931 322 ft 13 kts 84°
2026-05-05 18:11 44.57765 26.12082 321 ft 18 kts 84°
2026-05-05 18:12 44.57781 26.12275 321 ft 22 kts 83°
2026-05-05 18:12 44.57798 26.12521 314 ft 28 kts 83°
2026-05-05 18:12 44.57817 26.12760 313 ft 17 kts 85°
2026-05-05 18:12 44.57819 26.12795 313 ft 3 kts 84°
2026-05-05 18:13 44.57821 26.12830 312 ft 5 kts 84°
2026-05-05 18:13 44.57829 26.12843 311 ft 3 kts 36°
2026-05-05 18:13 44.57853 26.12859 312 ft 4 kts 14°
2026-05-05 18:13 44.57875 26.12856 312 ft 4 kts 344°
2026-05-05 18:14 44.57915 26.12823 313 ft 10 kts 323°
2026-05-05 18:14 44.57979 26.12740 313 ft 15 kts 295°
2026-05-05 18:14 44.57977 26.12582 316 ft 25 kts 264°
2026-05-05 18:14 44.57933 26.12031 322 ft 88 kts 263°
2026-05-05 18:15 44.57845 26.10859 318 ft 154 kts 265°
2026-05-05 18:15 44.57721 26.09192 654 ft 178 kts 263°
2026-05-05 18:15 44.57603 26.07481 1416 ft 173 kts 263°
2026-05-05 18:15 44.57499 26.05824 2144 ft 171 kts 263°
2026-05-05 18:16 44.57380 26.04081 2508 ft 189 kts 263°
2026-05-05 18:16 44.57231 26.02156 2775 ft 209 kts 263°
2026-05-05 18:16 44.57061 26.00035 3054 ft 229 kts 263°
2026-05-05 18:16 44.56876 25.97731 3395 ft 247 kts 263°
2026-05-05 18:17 44.56679 25.95274 3910 ft 258 kts 264°
2026-05-05 18:17 44.56475 25.92748 4618 ft 263 kts 264°
2026-05-05 18:17 44.56288 25.90180 5326 ft 267 kts 269°
2026-05-05 18:17 44.56458 25.87578 6032 ft 270 kts 287°
2026-05-05 18:18 44.57273 25.85227 6803 ft 269 kts 310°
2026-05-05 18:18 44.58554 25.83325 7657 ft 268 kts 319°
2026-05-05 18:18 44.59933 25.81578 8537 ft 267 kts 321°
2026-05-05 18:18 44.61339 25.79855 9341 ft 270 kts 321°
2026-05-05 18:19 44.62762 25.78121 10093 ft 272 kts 322°
2026-05-05 18:19 44.64233 25.76329 10498 ft 289 kts 322°
2026-05-05 18:19 44.65804 25.74415 10758 ft 309 kts 321°
2026-05-05 18:19 44.67473 25.72373 11048 ft 327 kts 321°
2026-05-05 18:20 44.69221 25.70230 11533 ft 338 kts 321°
2026-05-05 18:20 44.70399 25.68782 11947 ft 342 kts 321°
2026-05-05 18:20 44.72819 25.65804 12825 ft 349 kts 322°
2026-05-05 18:20 44.74657 25.63541 13496 ft 354 kts 322°
2026-05-05 18:21 44.76521 25.61244 14128 ft 359 kts 322°
2026-05-05 18:21 44.78406 25.58921 14764 ft 362 kts 322°
2026-05-05 18:21 44.80308 25.56574 15408 ft 365 kts 321°
2026-05-05 18:21 44.82223 25.54208 16042 ft 368 kts 321°
2026-05-05 18:22 44.84157 25.51818 16651 ft 372 kts 321°
2026-05-05 18:22 44.86112 25.49399 17231 ft 376 kts 321°
2026-05-05 18:22 44.88084 25.46957 17845 ft 379 kts 321°
2026-05-05 18:22 44.90075 25.44491 18397 ft 383 kts 321°
2026-05-05 18:23 44.92055 25.42034 18903 ft 386 kts 321°
2026-05-05 18:23 44.94074 25.39527 19427 ft 388 kts 321°
2026-05-05 18:23 44.96104 25.37002 19943 ft 390 kts 321°
2026-05-05 18:23 44.98126 25.34427 20451 ft 393 kts 317°
2026-05-05 18:24 44.99950 25.31526 20957 ft 398 kts 310°
2026-05-05 18:24 45.01605 25.28370 21454 ft 401 kts 307°
2026-05-05 18:24 45.03170 25.25095 21992 ft 403 kts 305°
2026-05-05 18:24 45.04695 25.21762 22520 ft 405 kts 304°
2026-05-05 18:25 45.06213 25.18396 22992 ft 407 kts 304°
2026-05-05 18:25 45.06727 25.17256 23160 ft 408 kts 304°
2026-05-05 18:25 45.09285 25.11623 23856 ft 411 kts 304°
2026-05-05 18:25 45.10847 25.08216 24227 ft 413 kts 305°
2026-05-05 18:26 45.12420 25.04804 24596 ft 415 kts 305°
2026-05-05 18:26 45.13489 25.02491 24849 ft 416 kts 305°
2026-05-05 18:26 45.15056 24.99103 25204 ft 418 kts 305°
2026-05-05 18:26 45.16671 24.95608 25579 ft 419 kts 305°
2026-05-05 18:27 45.18247 24.92195 25924 ft 420 kts 305°
2026-05-05 18:27 45.19870 24.88674 26271 ft 422 kts 305°
2026-05-05 18:27 45.21456 24.85229 26597 ft 424 kts 305°
2026-05-05 18:27 45.23068 24.81721 26918 ft 425 kts 305°
2026-05-05 18:28 45.26306 24.74663 27522 ft 429 kts 305°
2026-05-05 18:28 45.27935 24.71104 27788 ft 431 kts 305°
2026-05-05 18:28 45.29571 24.67525 28071 ft 433 kts 305°
2026-05-05 18:29 45.31212 24.63931 28357 ft 435 kts 305°
2026-05-05 18:29 45.32857 24.60322 28635 ft 436 kts 305°
2026-05-05 18:29 45.34506 24.56703 28991 ft 436 kts 305°
2026-05-05 18:29 45.36147 24.53093 29404 ft 434 kts 305°
2026-05-05 18:30 45.37780 24.49497 29810 ft 432 kts 305°
2026-05-05 18:30 45.39408 24.45906 30156 ft 431 kts 305°
2026-05-05 18:30 45.41029 24.42327 30454 ft 430 kts 305°
2026-05-05 18:30 45.42646 24.38753 30746 ft 429 kts 305°
2026-05-05 18:31 45.44260 24.35182 30982 ft 429 kts 305°
2026-05-05 18:31 45.45872 24.31610 31229 ft 429 kts 305°
2026-05-05 18:31 45.47481 24.28042 31507 ft 428 kts 305°
2026-05-05 18:31 45.49084 24.24480 31793 ft 426 kts 305°
2026-05-05 18:32 45.50680 24.20930 32096 ft 425 kts 305°
2026-05-05 18:32 45.52272 24.17386 32349 ft 424 kts 304°
2026-05-05 18:32 45.53860 24.13846 32597 ft 423 kts 305°
2026-05-05 18:32 45.55444 24.10309 32831 ft 423 kts 305°
2026-05-05 18:33 45.57026 24.06776 33058 ft 422 kts 304°
2026-05-05 18:33 45.58601 24.03251 33285 ft 421 kts 304°
2026-05-05 18:33 45.60250 23.99808 33509 ft 420 kts 307°
2026-05-05 18:33 45.61953 23.96427 33710 ft 419 kts 307°
2026-05-05 18:34 45.63663 23.93062 33914 ft 418 kts 308°
2026-05-05 18:34 45.65380 23.89702 34009 ft 420 kts 308°
2026-05-05 18:34 45.68804 23.83022 34008 ft 419 kts 308°
2026-05-05 18:35 45.72249 23.76292 33988 ft 419 kts 308°
2026-05-05 18:35 45.75690 23.69549 33992 ft 419 kts 308°
2026-05-05 18:36 45.79124 23.62800 33997 ft 419 kts 308°
2026-05-05 18:36 45.82554 23.56042 33997 ft 419 kts 308°
2026-05-05 18:37 45.85980 23.49276 33993 ft 419 kts 308°
2026-05-05 18:37 45.89405 23.42498 33991 ft 420 kts 307°
2026-05-05 18:38 45.92835 23.35690 33985 ft 421 kts 307°
2026-05-05 18:38 45.96262 23.28872 33984 ft 421 kts 307°
2026-05-05 18:39 45.99683 23.22049 33983 ft 421 kts 307°
2026-05-05 18:39 46.03102 23.15216 33982 ft 421 kts 307°
2026-05-05 18:40 46.06522 23.08362 33986 ft 422 kts 307°
2026-05-05 18:40 46.09921 23.01534 33984 ft 422 kts 307°
2026-05-05 18:41 46.13363 22.94603 33990 ft 422 kts 307°
2026-05-05 18:41 46.16755 22.87756 33982 ft 422 kts 306°
2026-05-05 18:42 46.20196 22.80795 33986 ft 424 kts 306°
2026-05-05 18:42 46.23614 22.73861 33988 ft 424 kts 306°
2026-05-05 18:43 46.27003 22.66969 33984 ft 424 kts 306°
2026-05-05 18:43 46.30414 22.60014 33988 ft 424 kts 306°
2026-05-05 18:44 46.33825 22.53043 33987 ft 426 kts 305°
2026-05-05 18:44 46.37251 22.46025 33973 ft 427 kts 305°
2026-05-05 18:45 46.40675 22.38991 33969 ft 427 kts 305°
2026-05-05 18:45 46.44094 22.31951 33975 ft 427 kts 305°
2026-05-05 18:46 46.47503 22.24915 33954 ft 427 kts 305°
2026-05-05 18:46 46.50938 22.17805 34086 ft 431 kts 304°
2026-05-05 18:47 46.52655 22.14247 34279 ft 430 kts 304°
2026-05-05 18:47 46.54366 22.10692 34440 ft 429 kts 304°
2026-05-05 18:47 46.56075 22.07140 34594 ft 429 kts 304°
2026-05-05 18:47 46.57780 22.03591 34720 ft 428 kts 304°
2026-05-05 18:48 46.59485 22.00037 34845 ft 429 kts 304°
2026-05-05 18:48 46.61192 21.96476 34939 ft 429 kts 304°
2026-05-05 18:48 46.64613 21.89325 35040 ft 432 kts 304°